Time,TemperatureF,DewpointF,PressureIn,WindDirection,WindDirectionDegrees,WindSpeedMPH,WindSpeedGustMPH,Humidity,HourlyPrecipIn,Conditions,Clouds,dailyrainin,SoftwareType,DateUTC
2013-09-06 00:08:00,43.1,39.0,30.11,WNW,290,0.0,5.0,85,0.00,,,0.00,weatherlink.com 1.10,2013-09-06 04:08:00,
2013-09-06 00:23:00,42.7,39.0,30.11,WSW,257,1.0,3.0,85,0.00,,,0.00,weatherlink.com 1.10,2013-09-06 04:23:00,
2013-09-06 00:38:00,42.1,38.0,30.11,South,171,1.0,4.0,86,0.00,,,0.00,weatherlink.com 1.10,2013-09-06 04:38:00,
2013-09-06 00:53:00,41.2,38.0,30.11,South,171,0.0,4.0,88,0.00,,,0.00,weatherlink.com 1.10,2013-09-06 04:53:00,
2013-09-06 01:08:00,40.1,37.0,30.12,South,171,2.0,2.0,89,0.00,,,0.00,weatherlink.com 1.10,2013-09-06 05:08:00,
2013-09-06 01:23:00,39.4,37.0,30.12,South,171,0.0,1.0,91,0.00,,,0.00,weatherlink.com 1.10,2013-09-06 05:23:00,
2013-09-06 01:38:00,38.6,37.0,30.12,South,171,0.0,0.0,92,0.00,,,0.00,weatherlink.com 1.10,2013-09-06 05:38:00,
2013-09-06 01:53:00,38.2,36.0,30.12,South,171,0.0,1.0,93,0.00,,,0.00,weatherlink.com 1.10,2013-09-06 05:53:00,
2013-09-06 02:08:00,38.1,37.0,30.13,ENE,62,0.0,3.0,94,0.00,,,0.00,weatherlink.com 1.10,2013-09-06 06:08:00,
2013-09-06 02:23:00,37.9,36.0,30.13,ENE,62,0.0,2.0,94,0.00,,,0.00,weatherlink.com 1.10,2013-09-06 06:23:00,
2013-09-06 02:38:00,37.6,36.0,30.13,ENE,62,1.0,2.0,95,0.00,,,0.00,weatherlink.com 1.10,2013-09-06 06:38:00,
2013-09-06 02:53:00,38.0,37.0,30.13,NW,321,2.0,5.0,95,0.00,,,0.00,weatherlink.com 1.10,2013-09-06 06:53:00,
2013-09-06 03:08:00,39.1,37.0,30.13,North,355,0.0,4.0,93,0.00,,,0.00,weatherlink.com 1.10,2013-09-06 07:08:00,
2013-09-06 03:23:00,38.5,36.0,30.14,SSE,159,0.0,1.0,92,0.00,,,0.00,weatherlink.com 1.10,2013-09-06 07:23:00,
2013-09-06 03:38:00,37.5,36.0,30.14,SSE,159,0.0,1.0,93,0.00,,,0.00,weatherlink.com 1.10,2013-09-06 07:38:00,
2013-09-06 03:53:00,37.1,36.0,30.14,SSE,159,1.0,2.0,95,0.00,,,0.00,weatherlink.com 1.10,2013-09-06 07:53:00,
2013-09-06 04:08:00,36.9,36.0,30.14,SSE,158,0.0,2.0,95,0.00,,,0.00,weatherlink.com 1.10,2013-09-06 08:08:00,
2013-09-06 04:23:00,36.8,36.0,30.15,SSE,158,0.0,2.0,96,0.00,,,0.00,weatherlink.com 1.10,2013-09-06 08:23:00,
2013-09-06 04:38:00,37.1,36.0,30.15,SSE,158,0.0,2.0,96,0.00,,,0.00,weatherlink.com 1.10,2013-09-06 08:38:00,
2013-09-06 04:53:00,37.0,36.0,30.15,SSE,158,2.0,2.0,96,0.00,,,0.00,weatherlink.com 1.10,2013-09-06 08:53:00,
2013-09-06 05:08:00,37.0,36.0,30.15,SSE,158,1.0,3.0,96,0.00,,,0.00,weatherlink.com 1.10,2013-09-06 09:08:00,
2013-09-06 05:23:00,37.0,36.0,30.15,SSE,158,1.0,2.0,96,0.00,,,0.00,weatherlink.com 1.10,2013-09-06 09:23:00,
2013-09-06 05:38:00,36.9,36.0,30.15,SSE,158,1.0,2.0,96,0.00,,,0.00,weatherlink.com 1.10,2013-09-06 09:38:00,
2013-09-06 05:53:00,36.7,36.0,30.16,SSE,158,1.0,3.0,96,0.00,,,0.00,weatherlink.com 1.10,2013-09-06 09:53:00,
2013-09-06 06:08:00,37.0,36.0,30.16,SSE,158,2.0,3.0,96,0.00,,,0.00,weatherlink.com 1.10,2013-09-06 10:08:00,
2013-09-06 06:23:00,37.1,36.0,30.17,SSE,157,1.0,3.0,96,0.00,,,0.00,weatherlink.com 1.10,2013-09-06 10:23:00,
2013-09-06 06:38:00,37.0,36.0,30.17,SSE,157,1.0,2.0,95,0.00,,,0.00,weatherlink.com 1.10,2013-09-06 10:38:00,
2013-09-06 06:53:00,36.7,35.0,30.18,SSE,157,0.0,1.0,95,0.00,,,0.00,weatherlink.com 1.10,2013-09-06 10:53:00,
2013-09-06 07:08:00,37.0,36.0,30.18,SSE,157,2.0,2.0,96,0.00,,,0.00,weatherlink.com 1.10,2013-09-06 11:08:00,
2013-09-06 07:23:00,38.0,37.0,30.19,ENE,57,2.0,2.0,95,0.00,,,0.00,weatherlink.com 1.10,2013-09-06 11:23:00,
2013-09-06 07:38:00,39.4,37.0,30.20,NNE,21,2.0,5.0,91,0.00,,,0.00,weatherlink.com 1.10,2013-09-06 11:38:00,
2013-09-06 07:53:00,40.5,37.0,30.19,North,9,1.0,4.0,88,0.00,,,0.00,weatherlink.com 1.10,2013-09-06 11:53:00,
2013-09-06 08:08:00,41.8,38.0,30.19,North,355,1.0,4.0,85,0.00,,,0.00,weatherlink.com 1.10,2013-09-06 12:08:00,
2013-09-06 08:23:00,43.0,38.0,30.20,North,355,0.0,3.0,83,0.00,,,0.00,weatherlink.com 1.10,2013-09-06 12:23:00,
2013-09-06 08:38:00,44.2,38.0,30.20,North,5,3.0,4.0,80,0.00,,,0.00,weatherlink.com 1.10,2013-09-06 12:38:00,
2013-09-06 08:53:00,45.7,39.0,30.21,North,5,3.0,4.0,77,0.00,,,0.00,weatherlink.com 1.10,2013-09-06 12:53:00,
2013-09-06 09:08:00,46.8,40.0,30.21,NNW,338,4.0,6.0,77,0.00,,,0.00,weatherlink.com 1.10,2013-09-06 13:08:00,
2013-09-06 09:23:00,47.3,39.0,30.21,North,5,2.0,6.0,74,0.00,,,0.00,weatherlink.com 1.10,2013-09-06 13:23:00,
2013-09-06 09:39:00,48.0,39.0,30.21,NNW,331,2.0,3.0,71,0.00,,,0.00,weatherlink.com 1.10,2013-09-06 13:39:00,
2013-09-06 09:54:00,48.5,39.0,30.21,North,10,4.0,5.0,70,0.00,,,0.00,weatherlink.com 1.10,2013-09-06 13:54:00,
2013-09-06 10:09:00,50.2,40.0,30.21,NNE,32,3.0,7.0,67,0.00,,,0.00,weatherlink.com 1.10,2013-09-06 14:09:00,
2013-09-06 10:24:00,51.4,38.0,30.22,NNE,15,4.0,9.0,60,0.00,,,0.00,weatherlink.com 1.10,2013-09-06 14:24:00,
2013-09-06 10:39:00,51.6,37.0,30.21,ENE,78,0.0,7.0,59,0.00,,,0.00,weatherlink.com 1.10,2013-09-06 14:39:00,
2013-09-06 10:54:00,52.8,38.0,30.21,North,360,6.0,11.0,58,0.00,,,0.00,weatherlink.com 1.10,2013-09-06 14:54:00,
2013-09-06 11:09:00,53.5,37.0,30.21,NE,44,4.0,8.0,55,0.00,,,0.00,weatherlink.com 1.10,2013-09-06 15:09:00,
2013-09-06 11:24:00,53.6,38.0,30.21,West,281,3.0,8.0,55,0.00,,,0.00,weatherlink.com 1.10,2013-09-06 15:24:00,
2013-09-06 11:39:00,54.2,37.0,30.20,North,355,5.0,8.0,52,0.00,,,0.00,weatherlink.com 1.10,2013-09-06 15:39:00,
2013-09-06 11:54:00,55.4,37.0,30.20,WNW,296,3.0,7.0,50,0.00,,,0.00,weatherlink.com 1.10,2013-09-06 15:54:00,
2013-09-06 12:09:00,55.4,35.0,30.20,NNW,335,4.0,11.0,47,0.00,,,0.00,weatherlink.com 1.10,2013-09-06 16:09:00,
2013-09-06 12:24:00,55.8,37.0,30.19,NNW,345,5.0,7.0,49,0.00,,,0.00,weatherlink.com 1.10,2013-09-06 16:24:00,
2013-09-06 12:39:00,56.5,38.0,30.19,NW,324,2.0,8.0,50,0.00,,,0.00,weatherlink.com 1.10,2013-09-06 16:39:00,
2013-09-06 12:54:00,56.3,37.0,30.19,NNW,334,3.0,9.0,49,0.00,,,0.00,weatherlink.com 1.10,2013-09-06 16:54:00,
2013-09-06 13:09:00,56.9,38.0,30.18,NNW,329,3.0,7.0,49,0.00,,,0.00,weatherlink.com 1.10,2013-09-06 17:09:00,
2013-09-06 13:24:00,57.1,37.0,30.18,South,190,2.0,8.0,48,0.00,,,0.00,weatherlink.com 1.10,2013-09-06 17:24:00,
2013-09-06 13:39:00,57.6,36.0,30.17,North,11,5.0,9.0,44,0.00,,,0.00,weatherlink.com 1.10,2013-09-06 17:39:00,
2013-09-06 13:54:00,58.1,35.0,30.17,NNE,25,4.0,7.0,42,0.00,,,0.00,weatherlink.com 1.10,2013-09-06 17:54:00,
2013-09-06 14:09:00,58.5,36.0,30.16,North,360,7.0,8.0,44,0.00,,,0.00,weatherlink.com 1.10,2013-09-06 18:09:00,
2013-09-06 14:24:00,58.8,37.0,30.16,NNE,13,5.0,8.0,44,0.00,,,0.00,weatherlink.com 1.10,2013-09-06 18:24:00,
2013-09-06 14:40:00,59.2,39.0,30.15,SSW,197,2.0,7.0,47,0.00,,,0.00,weatherlink.com 1.10,2013-09-06 18:40:00,
2013-09-06 14:54:00,59.9,39.0,30.15,WNW,288,4.0,9.0,46,0.00,,,0.00,weatherlink.com 1.10,2013-09-06 18:54:00,
2013-09-06 15:09:00,59.8,38.0,30.14,WNW,286,1.0,5.0,44,0.00,,,0.00,weatherlink.com 1.10,2013-09-06 19:09:00,
2013-09-06 15:24:00,60.6,42.0,30.14,WSW,257,3.0,6.0,50,0.00,,,0.00,weatherlink.com 1.10,2013-09-06 19:24:00,
2013-09-06 15:39:00,60.5,39.0,30.14,WNW,300,2.0,7.0,45,0.00,,,0.00,weatherlink.com 1.10,2013-09-06 19:39:00,
2013-09-06 15:54:00,60.4,40.0,30.13,South,173,5.0,7.0,48,0.00,,,0.00,weatherlink.com 1.10,2013-09-06 19:54:00,
2013-09-06 16:09:00,60.8,40.0,30.12,WNW,290,3.0,9.0,47,0.00,,,0.00,weatherlink.com 1.10,2013-09-06 20:09:00,
2013-09-06 16:24:00,61.2,38.0,30.12,North,355,3.0,8.0,43,0.00,,,0.00,weatherlink.com 1.10,2013-09-06 20:24:00,
2013-09-06 16:39:00,60.7,38.0,30.12,NNE,26,3.0,8.0,43,0.00,,,0.00,weatherlink.com 1.10,2013-09-06 20:39:00,
2013-09-06 16:54:00,61.1,38.0,30.12,NE,40,0.0,7.0,43,0.00,,,0.00,weatherlink.com 1.10,2013-09-06 20:54:00,
2013-09-06 17:09:00,61.2,40.0,30.12,NW,325,1.0,8.0,46,0.00,,,0.00,weatherlink.com 1.10,2013-09-06 21:09:00,
2013-09-06 17:24:00,60.9,41.0,30.12,WNW,297,2.0,6.0,48,0.00,,,0.00,weatherlink.com 1.10,2013-09-06 21:24:00,
2013-09-06 17:39:00,61.3,41.0,30.12,North,5,2.0,4.0,47,0.00,,,0.00,weatherlink.com 1.10,2013-09-06 21:39:00,
2013-09-06 17:54:00,60.1,40.0,30.12,NNW,346,1.0,8.0,47,0.00,,,0.00,weatherlink.com 1.10,2013-09-06 21:54:00,
2013-09-06 18:09:00,56.2,42.0,30.11,NNW,346,0.0,3.0,60,0.00,,,0.00,weatherlink.com 1.10,2013-09-06 22:09:00,
2013-09-06 18:24:00,53.7,41.0,30.11,North,355,3.0,3.0,62,0.00,,,0.00,weatherlink.com 1.10,2013-09-06 22:24:00,
2013-09-06 18:39:00,53.8,43.0,30.11,North,11,3.0,4.0,66,0.00,,,0.00,weatherlink.com 1.10,2013-09-06 22:39:00,
2013-09-06 18:54:00,53.2,43.0,30.11,North,11,0.0,2.0,68,0.00,,,0.00,weatherlink.com 1.10,2013-09-06 22:54:00,
2013-09-06 19:09:00,51.2,42.0,30.11,North,11,0.0,2.0,71,0.00,,,0.00,weatherlink.com 1.10,2013-09-06 23:09:00,
2013-09-06 19:24:00,49.7,42.0,30.11,North,11,1.0,2.0,75,0.00,,,0.00,weatherlink.com 1.10,2013-09-06 23:24:00,
2013-09-06 19:39:00,48.5,43.0,30.11,North,11,0.0,2.0,80,0.00,,,0.00,weatherlink.com 1.10,2013-09-06 23:39:00,
2013-09-06 19:54:00,47.7,43.0,30.11,North,11,0.0,0.0,82,0.00,,,0.00,weatherlink.com 1.10,2013-09-06 23:54:00,
2013-09-06 20:10:00,47.5,42.0,30.11,North,11,1.0,2.0,82,0.00,,,0.00,weatherlink.com 1.10,2013-09-07 00:10:00,
2013-09-06 20:25:00,46.9,42.0,30.11,North,11,0.0,1.0,83,0.00,,,0.00,weatherlink.com 1.10,2013-09-07 00:25:00,
2013-09-06 20:40:00,46.3,42.0,30.11,North,11,0.0,2.0,85,0.00,,,0.00,weatherlink.com 1.10,2013-09-07 00:40:00,
2013-09-06 20:55:00,46.1,42.0,30.11,North,11,0.0,0.0,86,0.00,,,0.00,weatherlink.com 1.10,2013-09-07 00:55:00,
2013-09-06 21:10:00,46.2,42.0,30.11,North,11,1.0,1.0,86,0.00,,,0.00,weatherlink.com 1.10,2013-09-07 01:10:00,
2013-09-06 21:25:00,45.8,42.0,30.11,North,11,0.0,1.0,87,0.00,,,0.00,weatherlink.com 1.10,2013-09-07 01:25:00,
2013-09-06 21:40:00,45.5,43.0,30.11,North,11,0.0,0.0,89,0.00,,,0.00,weatherlink.com 1.10,2013-09-07 01:40:00,
2013-09-06 21:55:00,45.4,42.0,30.11,North,11,0.0,0.0,88,0.00,,,0.00,weatherlink.com 1.10,2013-09-07 01:55:00,
2013-09-06 22:10:00,45.2,42.0,30.11,North,11,0.0,1.0,88,0.00,,,0.00,weatherlink.com 1.10,2013-09-07 02:10:00,
2013-09-06 22:25:00,45.7,42.0,30.10,North,11,1.0,2.0,87,0.00,,,0.00,weatherlink.com 1.10,2013-09-07 02:25:00,
2013-09-06 22:40:00,45.8,42.0,30.10,North,11,1.0,1.0,86,0.00,,,0.00,weatherlink.com 1.10,2013-09-07 02:40:00,
2013-09-06 22:55:00,45.7,42.0,30.10,North,11,2.0,3.0,86,0.00,,,0.00,weatherlink.com 1.10,2013-09-07 02:55:00,
2013-09-06 23:10:00,45.7,42.0,30.09,North,11,0.0,2.0,86,0.00,,,0.00,weatherlink.com 1.10,2013-09-07 03:10:00,
2013-09-06 23:25:00,45.9,42.0,30.09,North,11,1.0,2.0,86,0.00,,,0.00,weatherlink.com 1.10,2013-09-07 03:25:00,
2013-09-06 23:40:00,45.9,42.0,30.07,North,11,0.0,0.0,85,0.00,,,0.00,weatherlink.com 1.10,2013-09-07 03:40:00,
2013-09-06 23:55:00,45.7,42.0,30.07,North,11,0.0,0.0,85,0.00,,,0.00,weatherlink.com 1.10,2013-09-07 03:55:00,